Location: C.E.K. Mees Observatory
(42.7003°N, 77.4088°W)
Time: 02:38:43
(UTC-05:00)

Vanguard 1 - All Passes

Search period start: 18 January 2018 00:00
Search period end: 28 January 2018 00:00
Orbit: 649 x 3834 km, 34.3° (Epoch: 17 January)

Date Brightness Start Highest point End Pass type
(mag) Time Alt. Az. Time Alt. Az. Time Alt. Az.
18 Jan - 01:35:59 10° WSW 01:45:03 57° SSE 02:01:49 10° E visible
18 Jan - 03:55:36 10° W 04:08:03 58° S 04:28:51 10° ESE visible
18 Jan - 06:17:20 10° W 06:32:16 38° SSW 06:52:13 10° SSE visible
18 Jan - 08:46:20 10° WSW 08:55:46 15° SW 09:05:50 10° SSW daylight
18 Jan - 23:38:39 10° SSW 23:45:11 36° SSE 23:56:12 10° E visible
19 Jan - 01:56:43 10° WSW 02:06:04 59° S 02:23:22 10° ESE visible
19 Jan - 04:16:37 10° W 04:29:15 53° SSW 04:49:51 10° SE visible
19 Jan - 06:39:02 10° W 06:53:20 31° SW 07:11:45 10° SSE visible
19 Jan - 21:45:04 10° SSE 21:47:05 11° SE 21:49:22 10° ESE night (unlit)
19 Jan - 23:58:59 10° SW 00:05:49 42° SSE 00:17:50 10° E visible
20 Jan - 02:17:30 10° WSW 02:27:08 59° S 02:44:51 10° ESE visible
20 Jan - 04:37:42 10° W 04:50:27 47° SSW 05:10:35 10° SE visible
20 Jan - 07:01:12 10° W 07:14:20 25° SW 07:30:37 10° S visible
20 Jan - 22:03:24 10° S 22:07:21 17° SE 22:12:35 10° E night (unlit)
21 Jan - 00:19:29 10° SW 00:26:34 48° SSE 00:39:24 10° E visible
21 Jan - 02:38:21 10° W 02:48:15 57° S 03:06:13 10° ESE visible
21 Jan - 04:58:55 10° W 05:11:38 41° SSW 05:30:58 10° SE visible
21 Jan - 07:24:12 10° WSW 07:35:18 19° SW 07:48:25 10° S daylight
21 Jan - 22:22:59 10° SSW 22:27:43 24° SE 22:34:40 10° E night (unlit)
22 Jan - 00:40:06 10° WSW 00:47:26 52° SSE 01:00:54 10° E visible
22 Jan - 02:59:15 10° W 03:09:23 53° S 03:27:24 10° ESE visible
22 Jan - 05:20:19 10° W 05:32:46 34° SSW 05:50:56 10° SSE visible
22 Jan - 07:49:17 10° WSW 07:56:16 13° SW 08:03:55 10° SSW daylight
22 Jan - 22:43:00 10° SSW 22:48:13 30° SSE 22:56:22 10° E night (unlit)
23 Jan - 01:00:48 10° WSW 01:08:22 54° S 01:22:22 10° ESE visible
23 Jan - 03:20:13 10° W 03:30:32 48° SSW 03:48:22 10° SE visible
23 Jan - 05:42:02 10° W 05:53:53 28° SSW 06:10:21 10° SSE visible
23 Jan - 23:03:19 10° SW 23:08:50 37° SSE 23:17:54 10° E night (unlit)
24 Jan - 01:21:34 10° WSW 01:29:21 54° S 01:43:45 10° ESE visible
24 Jan - 03:41:17 10° W 03:51:39 42° SSW 04:09:03 10° SE visible
24 Jan - 06:04:18 10° WSW 06:14:59 22° SW 06:28:59 10° S visible
24 Jan - 21:08:06 10° S 21:10:38 13° SE 21:13:35 10° ESE night (unlit)
24 Jan - 23:23:48 10° SW 23:29:33 43° SSE 23:39:21 10° E night (unlit)
25 Jan - 01:42:24 10° WSW 01:50:23 51° S 02:05:02 10° ESE visible
25 Jan - 04:02:29 10° W 04:12:49 36° SSW 04:29:21 10° SSE visible
25 Jan - 06:27:39 10° WSW 06:36:05 16° SW 06:46:17 10° S visible
25 Jan - 21:27:25 10° SSW 21:31:04 19° SE 21:35:48 10° ESE night (unlit)
25 Jan - 23:44:24 10° WSW 23:50:22 47° S 00:00:44 10° E night (unlit)
26 Jan - 02:03:17 10° W 02:11:26 47° S 02:26:08 10° ESE visible
26 Jan - 04:23:55 10° W 04:33:58 30° SSW 04:49:13 10° SSE visible
26 Jan - 21:47:24 10° SSW 21:51:35 25° SSE 21:57:27 10° E night (unlit)
27 Jan - 00:05:06 10° WSW 00:11:14 48° S 00:22:04 10° ESE night (unlit)
27 Jan - 02:24:14 10° W 02:32:31 42° SSW 02:47:01 10° SE visible
27 Jan - 04:45:45 10° WSW 04:55:07 23° SSW 05:08:25 10° SSE visible
27 Jan - 22:07:41 10° SW 22:12:13 31° SSE 22:18:52 10° E night (unlit)
